This is the latest recevied weather packets stored in our database for station/object HB9TJM-8. If no packets are shown the sender has not sent any weather packets the latest 10 day(s).
| Time | Temp. | Humidity | Pressure | Rain* | Wind** | Luminosity | Snow |
|---|---|---|---|---|---|---|---|
| 1777606144 | 6.11° C | 51% | 1023.5 hPa | 0 mm | - | 0 W/m² | - |
| 1777605837 | 5.56° C | 50% | 1023.4 hPa | 0 mm | - | 0 W/m² | - |
| 1777605529 | 6.11° C | 50% | 1023.3 hPa | 0 mm | - | 0 W/m² | - |
| 1777605222 | 6.11° C | 49% | 1023.3 hPa | 0 mm | - | 0 W/m² | - |
| 1777604915 | 6.11° C | 49% | 1023.4 hPa | 0 mm | - | 0 W/m² | - |
| 1777604608 | 6.11° C | 49% | 1023.4 hPa | 0 mm | - | 0 W/m² | - |
| 1777604300 | 6.11° C | 49% | 1023.2 hPa | 0 mm | - | 0 W/m² | - |
| 1777603993 | 6.67° C | 49% | 1023.4 hPa | 0 mm | - | 0 W/m² | - |
| 1777603686 | 6.11° C | 49% | 1023.5 hPa | 0 mm | - | 0 W/m² | - |
| 1777603071 | 6.11° C | 50% | 1023.2 hPa | 0 mm | - | 0 W/m² | - |
| 1777602763 | 6.11° C | 50% | 1023.5 hPa | 0 mm | - | 0 W/m² | - |
| 1777602456 | 6.11° C | 49% | 1023.4 hPa | 0 mm | - | 0 W/m² | - |
| 1777602148 | 6.11° C | 51% | 1023.1 hPa | 0 mm | - | 0 W/m² | - |
| 1777601841 | 6.11° C | 49% | 1023.4 hPa | 0 mm | - | 0 W/m² | - |
| 1777601533 | 6.11° C | 50% | 1023.3 hPa | 0 mm | - | 0 W/m² | - |
| 1777601226 | 6.67° C | 51% | 1023.6 hPa | 0 mm | - | 0 W/m² | - |
| 1777600918 | 6.67° C | 50% | 1023.6 hPa | 0 mm | - | 0 W/m² | - |
| 1777600610 | 6.67° C | 49% | 1023.4 hPa | 0 mm | - | 0 W/m² | - |
| 1777600302 | 6.67° C | 47% | 1023.5 hPa | 0 mm | - | 0 W/m² | - |
| 1777599995 | 6.67° C | 46% | 1023.2 hPa | 0 mm | - | 0 W/m² | - |
| 1777599687 | 6.67° C | 47% | 1023.2 hPa | 0 mm | - | 0 W/m² | - |
| 1777599380 | 6.67° C | 47% | 1023 hPa | 0 mm | - | 0 W/m² | - |
| 1777599072 | 6.67° C | 47% | 1023.6 hPa | 0 mm | - | 0 W/m² | - |
| 1777598458 | 7.22° C | 45% | 1023.8 hPa | 0 mm | - | 0 W/m² | - |
| 1777598151 | 6.67° C | 47% | 1023.6 hPa | 0 mm | - | 0 W/m² | - |
* Rain latest hour (hover to see other rain measurements)
** Current wind speed in m/s (hover to see current wind gust speed)